[[{"header":{"parameterUnit":"m.s-1","parameterCategory":1,"la1":30.2991,"la2":30.254,"lo1":-89.0895,"lo2":-89.0444,"dy":0.0017,"dx":0.0017,"nx":28,"ny":28,"refTime":"2023-07-23T21:00:00:Z","depth":0,"parameterNumber":2,"parameterNumberName":"U-component_of_WINDS"},"data":[0,0,0,0,0,0,0,0,0,0,0,0,0,0,0,0,0,0,0,0,0,0,0,0,0,0,0,0,0,0,0,0,0,0,0,0,0,0,0,0,0,0,0,0,0,0,0,0,0,0,0,0,0,0,0,0,0,0,-1.658,-1.658,0,-1.6535,-1.6535,-1.6534,-1.6479,-1.6478,-1.6477,-1.6477,-1.6431,-1.643,-1.643,0,0,0,0,0,0,0,0,0,0,0,0,0,-1.6618,-1.6618,-1.658,-1.6579,-1.6579,-1.6535,-1.6535,-1.6534,-1.6479,-1.6478,-1.6477,-1.6476,-1.6431,-1.643,-1.643,0,0,0,0,0,0,0,0,0,0,0,0,0,-1.6591,-1.6618,-1.658,-1.6546,-1.6543,-1.6535,-1.6535,-1.6534,-1.6479,-1.6478,-1.6477,-1.6476,-1.6431,-1.643,-1.643,-1.6452,0,0,-1.6428,-1.6428,0,0,0,0,0,0,0,0,-1.6592,-1.6589,-1.6552,-1.6549,-1.6545,-1.6511,-1.6531,-1.6506,-1.648,-1.6504,-1.6476,-1.6475,-1.6459,-1.6456,-1.645,-1.645,-1.6448,-1.6428,-1.6427,-1.6427,-1.6427,0,0,0,0,0,0,0,-1.6594,-1.6591,-1.6562,-1.6551,-1.6547,-1.6533,-1.6528,-1.6526,-1.6489,-1.6501,-1.6497,-1.6493,-1.6456,-1.6451,-1.6448,-1.6447,-1.6428,-1.6427,-1.6427,-1.6427,-1.6462,-1.6463,0,0,0,0,0,0,-1.6601,-1.6593,-1.6564,-1.6561,-1.6566,-1.6534,-1.6528,-1.6523,-1.6489,-1.6482,-1.6494,-1.649,-1.6452,-1.6449,-1.6447,-1.6469,-1.6427,-1.6426,-1.6426,-1.646,-1.6462,-1.6463,0,0,0,0,0,0,-1.6602,-1.6599,-1.6565,-1.6576,-1.657,-1.6534,-1.653,-1.6523,-1.6517,-1.6483,-1.6476,-1.6495,-1.6451,-1.6448,-1.6451,-1.6467,-1.6426,-1.6426,-1.6459,-1.6461,-1.6463,-1.6516,0,0,0,0,0,0,-1.6604,-1.66,-1.6608,-1.6576,-1.657,-1.657,-1.6531,-1.6523,-1.6516,-1.6511,-1.6482,-1.6476,-1.645,-1.6452,-1.645,-1.6465,-1.6425,-1.6457,-1.646,-1.6462,-1.6512,-1.6519,-1.6525,0,0,0,0,0,-1.6605,-1.6625,-1.6608,-1.6605,-1.6579,-1.6571,-1.6568,-1.6537,-1.6518,-1.6526,-1.6504,-1.6477,-1.6466,-1.6453,-1.645,-1.6466,-1.6456,-1.6459,-1.6462,-1.651,-1.6518,-1.6525,0,0,0,0,0,0,-1.6659,-1.662,-1.6601,-1.6611,-1.6595,-1.6562,-1.6571,-1.6547,-1.6536,-1.6532,-1.6495,-1.6489,-1.6496,-1.6481,-1.6467,-1.6485,-1.6457,-1.646,-1.6494,-1.6502,-1.6508,-1.6511,-1.6425,0,0,0,0,0,-1.6672,-1.6669,-1.6635,-1.6647,-1.664,-1.6607,-1.6602,-1.658,-1.6562,-1.6555,-1.6533,-1.6516,-1.6509,-1.6505,-1.6496,-1.651,-1.6503,-1.652,-1.6526,-1.6532,-1.6534,-1.654,-1.6547,-1.6473,-1.6473,-1.6473,0,0,-1.6699,-1.6677,-1.6678,-1.6657,-1.6642,-1.664,-1.6602,-1.6601,-1.6598,-1.6555,-1.6556,-1.654,-1.6518,-1.6527,-1.653,-1.6515,-1.6553,-1.6535,-1.654,-1.6539,-1.6544,-1.6551,-1.6557,-1.6475,-1.6475,-1.6474,0,0,-1.6746,-1.673,-1.6738,-1.6723,-1.6701,-1.6679,-1.6681,-1.6652,-1.6639,-1.664,-1.6607,-1.6604,-1.6592,-1.6578,-1.6569,-1.6612,-1.6587,-1.661,-1.6644,-1.665,-1.6656,-1.666,-1.6675,-1.668,-1.6613,-1.6613,-1.6613,0,-1.6782,-1.6777,-1.6745,-1.6746,-1.6738,-1.6698,-1.6706,-1.6694,-1.667,-1.6665,-1.6649,-1.6633,-1.6616,-1.662,-1.6631,-1.6626,-1.6626,-1.6613,-1.6657,-1.6662,-1.6666,-1.6679,-1.6685,-1.6616,-1.6616,-1.6616,-1.6615,0,-1.6822,-1.6819,-1.6829,-1.6806,-1.6799,-1.6804,-1.6772,-1.6769,-1.6748,-1.6727,-1.6729,-1.6707,-1.6693,-1.6693,-1.6672,-1.6694,-1.6686,-1.6664,-1.6635,-1.6677,-1.6688,-1.6693,-1.662,-1.6619,-1.6618,-1.6618,0,0,-1.6901,-1.6861,-1.6865,-1.6854,-1.6827,-1.6824,-1.6826,-1.6813,-1.681,-1.6796,-1.6796,-1.6788,-1.6767,-1.6758,-1.6735,-1.6741,-1.6775,-1.6718,-1.6717,-1.6729,-1.6797,-1.6813,-1.6819,-1.6759,-1.676,-1.676,-1.6799,0,-1.6943,-1.6945,-1.6916,-1.6925,-1.6922,-1.6885,-1.6887,-1.6871,-1.6852,-1.6846,-1.6826,-1.682,-1.6794,-1.6788,-1.6792,-1.677,-1.6788,-1.6767,-1.6759,-1.6759,-1.6764,-1.6826,-1.6842,-1.6879,-1.6803,-1.6804,-1.6805,0,-1.6991,-1.6979,-1.6988,-1.696,-1.6957,-1.696,-1.6945,-1.694,-1.6921,-1.6907,-1.6896,-1.6871,-1.6871,-1.6845,-1.6845,-1.6831,-1.6826,-1.6815,-1.6815,-1.6812,-1.6783,-1.6823,-1.6891,-1.6896,-1.6812,-1.6811,-1.6811,0,-1.7046,-1.7032,-1.7036,-1.7028,-1.6995,-1.6998,-1.6985,-1.6964,-1.6957,-1.6945,-1.694,-1.6928,-1.692,-1.6911,-1.6883,-1.6867,-1.6886,-1.6857,-1.6874,-1.6875,-1.6879,-1.6878,-1.6945,-1.6878,-1.6878,-1.6877,-1.6877,0,-1.7095,-1.7102,-1.706,-1.7062,-1.7069,-1.7036,-1.7043,-1.7027,-1.7009,-1.7006,-1.6974,-1.6973,-1.6936,-1.6931,-1.6909,-1.6912,-1.691,-1.6898,-1.6892,-1.69,-1.6901,-1.6895,-1.6891,-1.6879,-1.6879,-1.6878,-1.6878,0,-1.7157,-1.713,-1.7131,-1.71,-1.7093,-1.7099,-1.7073,-1.7073,-1.7053,-1.7051,-1.7049,-1.7017,-1.7009,-1.698,-1.6966,-1.6951,-1.696,-1.6949,-1.6967,-1.6963,-1.698,-1.6979,-1.7044,-1.7051,-1.6981,-1.6981,-1.6982,0,-1.7189,-1.7194,-1.7164,-1.716,-1.7148,-1.7143,-1.7136,-1.7104,-1.7098,-1.7077,-1.708,-1.707,-1.7059,-1.7049,-1.7024,-1.7013,-1.7,-1.7024,-1.6998,-1.7006,-1.6999,-1.6999,-1.6999,-1.7029,-1.703,-1.7031,-1.7032,0,-1.7249,-1.7235,-1.7227,-1.7213,-1.7206,-1.7194,-1.7181,-1.718,-1.7144,-1.7139,-1.7131,-1.7123,-1.7108,-1.7098,-1.7083,-1.7069,-1.7044,-1.704,-1.7043,-1.7051,-1.706,-1.7054,-1.6981,-1.7038,-1.7038,-1.7037,-1.7037,-1.7037,-1.7296,-1.7298,-1.7277,-1.7269,-1.7255,-1.7243,-1.7242,-1.7222,-1.7214,-1.7199,-1.7181,-1.7175,-1.7155,-1.7132,-1.712,-1.7115,-1.7101,-1.7106,-1.7107,-1.7108,-1.7111,-1.7063,-1.7112,-1.7112,-1.7111,-1.7111,-1.7111,0,-1.7353,-1.7338,-1.733,-1.7312,-1.7305,-1.7284,-1.7267,-1.7263,-1.7258,-1.7242,-1.7233,-1.7223,-1.7213,-1.7188,-1.7176,-1.7176,-1.7165,-1.7174,-1.7173,-1.717,-1.7125,-1.7123,-1.7184,-1.7184,-1.7184,-1.7184,-1.7183,-1.7183,-1.7381,-1.7383,-1.7367,-1.7362,-1.7347,-1.734,-1.7333,-1.7322,-1.7308,-1.7299,-1.7291,-1.7275,-1.7255,-1.7241,-1.7231,-1.7224,-1.722,-1.7233,-1.7222,-1.718,-1.7173,-1.7167,-1.7164,-1.7233,-1.7233,-1.7267,-1.7268,-1.7268]},{"header":{"parameterUnit":"m.s-1","parameterCategory":1,"la1":30.2991,"la2":30.254,"lo1":-89.0895,"lo2":-89.0444,"dy":0.0017,"dx":0.0017,"nx":28,"ny":28,"refTime":"2023-07-23T21:00:00:Z","depth":0,"parameterNumber":3,"parameterNumberName":"V-component_of_WINDS"},"data":[0,0,0,0,0,0,0,0,0,0,0,0,0,0,0,0,0,0,0,0,0,0,0,0,0,0,0,0,0,0,0,0,0,0,0,0,0,0,0,0,0,0,0,0,0,0,0,0,0,0,0,0,0,0,0,0,0,0,-0.3454,-0.3453,0,-0.3334,-0.3333,-0.3332,-0.3281,-0.3281,-0.3281,-0.3281,-0.316,-0.3157,-0.3154,0,0,0,0,0,0,0,0,0,0,0,0,0,-0.364,-0.3637,-0.3454,-0.3452,-0.3451,-0.3335,-0.3333,-0.3331,-0.3281,-0.3281,-0.3281,-0.3281,-0.3162,-0.3158,-0.3153,0,0,0,0,0,0,0,0,0,0,0,0,0,-0.3544,-0.3636,-0.3454,-0.3412,-0.3407,-0.3335,-0.3333,-0.3331,-0.3281,-0.3281,-0.3281,-0.3282,-0.3163,-0.3158,-0.3153,-0.3115,0,0,-0.3137,-0.3135,0,0,0,0,0,0,0,0,-0.3549,-0.3537,-0.3419,-0.3414,-0.3409,-0.3323,-0.3354,-0.3259,-0.3281,-0.3329,-0.3281,-0.3282,-0.3214,-0.3205,-0.3182,-0.3109,-0.3104,-0.3137,-0.3134,-0.3131,-0.313,0,0,0,0,0,0,0,-0.3556,-0.3542,-0.3407,-0.3418,-0.3411,-0.3399,-0.3386,-0.3336,-0.3271,-0.3324,-0.332,-0.3307,-0.3211,-0.3187,-0.3179,-0.3102,-0.3137,-0.3132,-0.3129,-0.3127,-0.2994,-0.2993,0,0,0,0,0,0,-0.3569,-0.3548,-0.341,-0.3403,-0.3481,-0.3396,-0.3381,-0.335,-0.3272,-0.326,-0.3307,-0.3305,-0.3196,-0.3185,-0.3174,-0.3125,-0.3132,-0.3127,-0.3124,-0.2994,-0.2994,-0.2993,0,0,0,0,0,0,-0.3574,-0.3558,-0.3415,-0.3474,-0.3455,-0.3392,-0.3358,-0.3348,-0.3323,-0.3258,-0.3247,-0.3294,-0.3195,-0.3181,-0.313,-0.312,-0.3124,-0.312,-0.2995,-0.2994,-0.2993,-0.3027,0,0,0,0,0,0,-0.3579,-0.3559,-0.3544,-0.3474,-0.3452,-0.3373,-0.3357,-0.3345,-0.3314,-0.3311,-0.3243,-0.3232,-0.3195,-0.3138,-0.3125,-0.3113,-0.3116,-0.2995,-0.2995,-0.2994,-0.3026,-0.3027,-0.3028,0,0,0,0,0,-0.3586,-0.3558,-0.3543,-0.3527,-0.3431,-0.3372,-0.336,-0.3317,-0.3314,-0.3298,-0.3256,-0.3234,-0.3124,-0.3133,-0.3118,-0.3105,-0.2996,-0.2995,-0.2994,-0.3026,-0.3027,-0.3028,0,0,0,0,0,0,-0.3629,-0.3548,-0.3531,-0.348,-0.3433,-0.3364,-0.3343,-0.332,-0.3274,-0.3272,-0.3222,-0.3207,-0.316,-0.3127,-0.314,-0.3064,-0.3058,-0.3054,-0.3087,-0.3088,-0.3089,-0.3098,-0.3112,0,0,0,0,0,-0.3632,-0.359,-0.3522,-0.3484,-0.3461,-0.3406,-0.3379,-0.335,-0.33,-0.328,-0.3235,-0.3188,-0.3142,-0.3113,-0.3068,-0.3021,-0.3006,-0.3005,-0.3006,-0.3007,-0.3004,-0.2977,-0.2976,-0.299,-0.299,-0.299,0,0,-0.3639,-0.359,-0.3566,-0.3491,-0.3452,-0.341,-0.339,-0.3347,-0.3315,-0.3274,-0.3222,-0.3188,-0.3132,-0.3083,-0.3059,-0.3054,-0.2997,-0.3005,-0.3007,-0.3003,-0.2976,-0.2975,-0.2974,-0.2989,-0.2989,-0.2989,0,0,-0.363,-0.3588,-0.3552,-0.3513,-0.3453,-0.3417,-0.3408,-0.3342,-0.3317,-0.3265,-0.3233,-0.3196,-0.3119,-0.308,-0.305,-0.3028,-0.3006,-0.3015,-0.3019,-0.2994,-0.2993,-0.2992,-0.2984,-0.2982,-0.3012,-0.3012,-0.3012,0,-0.3646,-0.3581,-0.3536,-0.3494,-0.3462,-0.3423,-0.3386,-0.335,-0.3279,-0.3259,-0.3254,-0.3157,-0.3116,-0.3058,-0.3052,-0.303,-0.3019,-0.3022,-0.2997,-0.2995,-0.2993,-0.2985,-0.2982,-0.3013,-0.3013,-0.3013,-0.3013,0,-0.3604,-0.356,-0.3537,-0.3469,-0.3435,-0.3396,-0.3346,-0.3317,-0.3291,-0.3256,-0.3204,-0.3154,-0.3098,-0.3082,-0.3057,-0.302,-0.3019,-0.3006,-0.2999,-0.2994,-0.2986,-0.2982,-0.3015,-0.3015,-0.3014,-0.3014,0,0,-0.3617,-0.3526,-0.3518,-0.3487,-0.3419,-0.3384,-0.3344,-0.3289,-0.3265,-0.3218,-0.3183,-0.3119,-0.3107,-0.3074,-0.3044,-0.3022,-0.3007,-0.3011,-0.3009,-0.3013,-0.2965,-0.2975,-0.2972,-0.2993,-0.2992,-0.2991,-0.2969,0,-0.3599,-0.3524,-0.3483,-0.3426,-0.3385,-0.3347,-0.3312,-0.3267,-0.3233,-0.3194,-0.3156,-0.3112,-0.3099,-0.3078,-0.3055,-0.3014,-0.2997,-0.3015,-0.296,-0.2959,-0.2975,-0.2967,-0.2977,-0.2959,-0.2966,-0.2965,-0.2965,0,-0.3567,-0.3521,-0.3459,-0.3396,-0.3378,-0.3347,-0.3293,-0.3256,-0.3205,-0.3181,-0.3145,-0.3115,-0.3072,-0.3068,-0.3008,-0.3021,-0.2996,-0.2973,-0.2971,-0.2964,-0.2961,-0.296,-0.2952,-0.295,-0.2959,-0.296,-0.296,0,-0.3584,-0.3506,-0.3459,-0.3433,-0.3359,-0.3338,-0.3306,-0.3255,-0.3225,-0.3178,-0.3158,-0.3108,-0.308,-0.3042,-0.3,-0.3001,-0.2944,-0.2937,-0.2924,-0.2925,-0.2914,-0.2915,-0.2902,-0.2898,-0.2898,-0.2898,-0.2898,0,-0.3568,-0.3532,-0.3465,-0.3437,-0.3395,-0.3349,-0.331,-0.3275,-0.323,-0.3194,-0.3158,-0.3126,-0.3072,-0.3033,-0.3,-0.2956,-0.2944,-0.2924,-0.2916,-0.2927,-0.2929,-0.291,-0.291,-0.2897,-0.2898,-0.2898,-0.2898,0,-0.3579,-0.3533,-0.3479,-0.3413,-0.3396,-0.3369,-0.3312,-0.3283,-0.3248,-0.3203,-0.319,-0.3134,-0.3086,-0.3041,-0.2977,-0.2955,-0.291,-0.2899,-0.2928,-0.2923,-0.2913,-0.2915,-0.2886,-0.2881,-0.2881,-0.2882,-0.2882,0,-0.3571,-0.3543,-0.3474,-0.3447,-0.3416,-0.3374,-0.3343,-0.3296,-0.3265,-0.3205,-0.3183,-0.3133,-0.309,-0.3016,-0.297,-0.2921,-0.2909,-0.2902,-0.2901,-0.2914,-0.2908,-0.2911,-0.2908,-0.2903,-0.2903,-0.2904,-0.2904,0,-0.3563,-0.3542,-0.3498,-0.3447,-0.3411,-0.3369,-0.3325,-0.3305,-0.3251,-0.3218,-0.3169,-0.3136,-0.307,-0.3021,-0.2967,-0.2935,-0.291,-0.2905,-0.2899,-0.291,-0.2928,-0.2918,-0.2931,-0.2905,-0.2905,-0.2905,-0.2905,-0.2905,-0.3565,-0.3538,-0.3485,-0.3438,-0.34,-0.336,-0.333,-0.3291,-0.3248,-0.3192,-0.3167,-0.3117,-0.3067,-0.2992,-0.296,-0.2921,-0.2915,-0.2907,-0.2905,-0.2904,-0.2906,-0.2934,-0.2911,-0.2911,-0.2911,-0.2911,-0.291,0,-0.3555,-0.3519,-0.3476,-0.3416,-0.3379,-0.3359,-0.331,-0.3281,-0.3237,-0.3192,-0.3151,-0.3095,-0.3047,-0.2998,-0.2947,-0.2925,-0.2913,-0.2913,-0.2914,-0.2907,-0.2914,-0.2924,-0.2924,-0.2924,-0.2924,-0.2924,-0.2924,-0.2924,-0.3545,-0.3499,-0.3471,-0.3406,-0.3371,-0.3321,-0.3295,-0.3258,-0.3222,-0.3161,-0.3121,-0.3089,-0.3042,-0.2988,-0.2943,-0.293,-0.2913,-0.2917,-0.2901,-0.2908,-0.2907,-0.2906,-0.2915,-0.2914,-0.2914,-0.2897,-0.2897,-0.2897]}]]